Find Starlink 32400

NORAD ID: 61669 Int'l Des: 2024-193 Owner: SPXS Country: US Constellation: starlink operational
LEOCIRCULAR

当前视图

正在加载3D地球...

About Starlink 32400

Starlink 32400 (NORAD 61669) is a starlink constellation satellite (v2 mini) launched Oct 26, 2024 by SPXS of US. It operates in LEO, CIRCULAR orbit with a mass of 730.00 kg.

即将过境

Passes for default location (London). Set your location on the main map for personalized predictions.

高度历史

Loading altitude history...

两行轨道根数

1 61669U 24193J 26263.97761526 .00002943 00000-0 98181-4 0 9998
2 61669 53.1592 259.1280 0001371 49.2531 310.8590 15.34406420106493
Epoch: Sep 20, 2026 • Age: 12 hours

当前状态

高度 473.0 km
远地点 / 近地点 N/A
速度 7.63 km/s
星下点 -32.92°S, 50.76°E
发射日期 Oct 26, 2024
运行时间 1.9 years
类型 internet

技术详情

分类 Payload
质量 730.00 kg
干质量 700.00 kg
长度 0.30 m
跨度 29.00 m
形状 ? Box + pan
制造商 SPXS
平台类型 Starlink V2M
阶段状态 In Orbit
所有者/国家 SPXS/US

Most Searched